Glenwood, MN

2:27 PM CDT on April 25, 2017 (GMT -0500)
Glenwood Municipal

Weather History for KGHW - December, 2011

Change the Weather History Date:

Tuesday, December 27, 2011

  Actual Average Record
Temperature  
Mean Temperature 26 °F -  
Max Temperature 35 °F 22 °F 46 °F (1959)
Min Temperature 17 °F 4 °F -19 °F (1951)
Degree Days  
Heating Degree Days 39    
Moisture  
Dew Point 14 °F    
Average Humidity 69    
Maximum Humidity 86    
Minimum Humidity 54    
Precipitation  
Precipitation 0.00 in - - ()
Sea Level Pressure  
Sea Level Pressure 29.94 in    
Wind  
Wind Speed 13 mph (NW)    
Max Wind Speed 24 mph    
Max Gust Speed 29 mph    
Visibility 10 miles    
Events      
Averages and records for this station are not official NWS values.
T = Trace of Precipitation, MM = Missing Value Source: NWS Daily Summary

Daily Weather History Graph

Daily Weather History Graph

Search for Another Location

Airport or City:

Trip Planner

Search our weather history database for the weather conditions in past years. The results will help you decide how hot, cold, wet, or windy it might be!

Date:

Astronomy

Dec. 27, 2011 Rise Set
Actual Time 8:01 AM CST 4:43 PM CST
Civil Twilight 7:26 AM CST 5:17 PM CST
Nautical Twilight 6:49 AM CST 5:55 PM CST
Astronomical Twilight 6:12 AM CST 6:31 PM CST
Moon 9:47 AM CST (12/27) 8:28 PM CST (12/27)
Length of Visible Light 9h 51m
Length of Day
8h 42m
Waxing Crescent, 11% of the Moon is Illuminated
Dec 27
Waxing Crescent
Jan 1
First Quarter
Jan 9
Full
Jan 16
Last Quarter
Jan 23
New

Hourly Weather History & Observations

Time (CST) Temp. Windchill Dew Point Humidity Pressure Visibility Wind Dir Wind Speed Gust Speed Precip Events Conditions
12:13 AM 33.8 °F 24.3 °F 26.6 °F 75% 29.75 in 10.0 mi WNW 13.8 mph - N/A   Scattered Clouds
12:33 AM 35.6 °F 26.6 °F 26.6 °F 70% 29.75 in 10.0 mi WNW 13.8 mph 21.9 mph N/A   Mostly Cloudy
12:54 AM 35.6 °F 26.2 °F 26.6 °F 70% 29.75 in 10.0 mi WNW 15.0 mph - N/A   Overcast
1:14 AM 35.6 °F 25.5 °F 26.6 °F 70% 29.76 in 10.0 mi WNW 17.3 mph - N/A   Overcast
1:34 AM 35.6 °F 25.2 °F 26.6 °F 70% 29.77 in 10.0 mi NW 18.4 mph 27.6 mph N/A   Overcast
2:13 AM 33.8 °F 22.5 °F 24.8 °F 70% 29.79 in 10.0 mi NW 19.6 mph 24.2 mph N/A   Overcast
2:34 AM 30.2 °F 18.9 °F 21.2 °F 69% 29.80 in 10.0 mi NW 16.1 mph 26.5 mph N/A   Scattered Clouds
2:53 AM 30.2 °F 18.1 °F 21.2 °F 69% 29.81 in 10.0 mi NW 18.4 mph 28.8 mph N/A   Scattered Clouds
3:14 AM 28.4 °F 16.6 °F 21.2 °F 74% 29.82 in 10.0 mi NW 16.1 mph 24.2 mph N/A   Clear
3:33 AM 26.6 °F 13.1 °F 21.2 °F 80% 29.83 in 10.0 mi NNW 19.6 mph 25.3 mph N/A   Clear
3:54 AM 24.8 °F 11.5 °F 19.4 °F 80% 29.83 in 10.0 mi NNW 17.3 mph 21.9 mph N/A   Clear
4:13 AM 24.8 °F 10.3 °F 19.4 °F 80% 29.85 in 10.0 mi NNW 20.7 mph 28.8 mph N/A   Scattered Clouds
4:34 AM 24.8 °F 11.1 °F 17.6 °F 74% 29.86 in 10.0 mi NNW 18.4 mph - N/A   Mostly Cloudy
4:54 AM 23.0 °F 6.9 °F 17.6 °F 80% 29.86 in 10.0 mi NW 24.2 mph 28.8 mph N/A   Overcast
5:34 AM 21.2 °F 6.0 °F 17.6 °F 86% 29.90 in 10.0 mi NNW 19.6 mph 28.8 mph N/A   Overcast
6:13 AM 21.2 °F 6.0 °F 15.8 °F 80% 29.92 in 10.0 mi NNW 19.6 mph 26.5 mph N/A   Overcast
6:34 AM 21.2 °F 5.6 °F 15.8 °F 80% 29.93 in 10.0 mi NNW 20.7 mph 27.6 mph N/A   Overcast
6:54 AM 21.2 °F 6.8 °F 15.8 °F 80% 29.95 in 10.0 mi NNW 17.3 mph 26.5 mph N/A   Overcast
7:13 AM 21.2 °F 6.4 °F 15.8 °F 80% 29.95 in 10.0 mi NNW 18.4 mph 23.0 mph N/A   Overcast
7:34 AM 21.2 °F 5.6 °F 15.8 °F 80% 29.97 in 10.0 mi NNW 20.7 mph - N/A   Overcast
7:54 AM 19.4 °F 4.5 °F 14.0 °F 80% 29.96 in 10.0 mi NNW 17.3 mph 26.5 mph N/A   Overcast
8:13 AM 19.4 °F 4.1 °F 14.0 °F 80% 29.97 in 10.0 mi North 18.4 mph - N/A   Mostly Cloudy
8:34 AM 19.4 °F 6.6 °F 14.0 °F 80% 29.97 in 10.0 mi NNW 12.7 mph - N/A   Overcast
8:54 AM 19.4 °F 6.6 °F 14.0 °F 80% 29.97 in 10.0 mi NNW 12.7 mph - N/A   Overcast
9:33 AM 19.4 °F 7.9 °F 12.2 °F 74% 29.99 in 10.0 mi North 10.4 mph - N/A   Scattered Clouds
9:54 AM 21.2 °F 8.9 °F 12.2 °F 68% 29.99 in 10.0 mi North 12.7 mph - N/A   Scattered Clouds
10:13 AM 19.4 °F 9.5 °F 12.2 °F 74% 30.00 in 10.0 mi North 8.1 mph - N/A   Scattered Clouds
10:33 AM 19.4 °F 8.6 °F 12.2 °F 74% 30.01 in 10.0 mi North 9.2 mph - N/A   Scattered Clouds
10:54 AM 21.2 °F 10.9 °F 12.2 °F 68% 30.01 in 10.0 mi NW 9.2 mph - N/A   Scattered Clouds
11:14 AM 21.2 °F 11.7 °F 12.2 °F 68% 30.02 in 10.0 mi NNW 8.1 mph - N/A   Scattered Clouds
11:34 AM 23.0 °F 12.4 °F 12.2 °F 63% 30.01 in 10.0 mi NW 10.4 mph 16.1 mph N/A   Clear
11:53 AM 21.2 °F 12.6 °F 12.2 °F 68% 30.01 in 10.0 mi NW 6.9 mph - N/A   Clear
12:13 PM 23.0 °F 14.7 °F 12.2 °F 63% 30.00 in 10.0 mi NW 6.9 mph - N/A   Clear
12:33 PM 23.0 °F 12.4 °F 12.2 °F 63% 30.02 in 10.0 mi NW 10.4 mph - N/A   Clear
12:54 PM 24.8 °F 14.6 °F 10.4 °F 54% 30.00 in 10.0 mi NW 10.4 mph - N/A   Clear
1:14 PM 24.8 °F 15.3 °F 10.4 °F 54% 30.00 in 10.0 mi NNW 9.2 mph - N/A   Clear
1:33 PM 24.8 °F 15.3 °F 10.4 °F 54% 29.99 in 10.0 mi NW 9.2 mph - N/A   Clear
1:54 PM 24.8 °F 16.1 °F 10.4 °F 54% 29.99 in 10.0 mi NW 8.1 mph - N/A   Clear
2:13 PM 24.8 °F 17.9 °F 10.4 °F 54% 29.99 in 10.0 mi NNW 5.8 mph - N/A   Clear
2:33 PM 24.8 °F 16.1 °F 10.4 °F 54% 29.99 in 10.0 mi NW 8.1 mph - N/A   Clear
2:54 PM 24.8 °F 16.1 °F 10.4 °F 54% 29.99 in 10.0 mi NW 8.1 mph - N/A   Clear
3:14 PM 21.2 °F 13.6 °F 10.4 °F 63% 30.00 in 10.0 mi NNW 5.8 mph - N/A   Clear
3:34 PM 21.2 °F 13.6 °F 8.6 °F 58% 30.00 in 10.0 mi NW 5.8 mph - N/A   Clear
3:53 PM 21.2 °F 11.7 °F 8.6 °F 58% 30.02 in 10.0 mi WNW 8.1 mph - N/A   Clear
4:14 PM 21.2 °F 10.1 °F 10.4 °F 63% 30.02 in 10.0 mi WNW 10.4 mph - N/A   Clear
4:34 PM 19.4 °F 9.5 °F 8.6 °F 63% 30.01 in 10.0 mi WNW 8.1 mph - N/A   Clear
5:14 PM 19.4 °F 12.8 °F 8.6 °F 63% 30.00 in 10.0 mi WNW 4.6 mph - N/A   Clear
5:34 PM 17.6 °F - 8.6 °F 68% 29.98 in 10.0 mi Calm Calm - N/A   Clear
5:53 PM 19.4 °F 14.3 °F 10.4 °F 68% 29.99 in 10.0 mi West 3.5 mph - N/A   Clear
6:13 PM 17.6 °F 9.3 °F 8.6 °F 68% 30.00 in 10.0 mi West 5.8 mph - N/A   Clear
6:33 PM 17.6 °F 9.3 °F 8.6 °F 68% 30.00 in 10.0 mi West 5.8 mph - N/A   Clear
6:54 PM 17.6 °F 10.7 °F 8.6 °F 68% 29.99 in 10.0 mi West 4.6 mph - N/A   Clear
7:14 PM 17.6 °F 12.3 °F 8.6 °F 68% 29.99 in 10.0 mi West 3.5 mph - N/A   Clear
7:33 PM 17.6 °F 9.3 °F 8.6 °F 68% 30.01 in 10.0 mi West 5.8 mph - N/A   Clear
8:14 PM 17.6 °F - 8.6 °F 68% 30.00 in 10.0 mi Calm Calm - N/A   Scattered Clouds
8:34 PM 17.6 °F 12.3 °F 8.6 °F 68% 30.01 in 10.0 mi West 3.5 mph - N/A   Scattered Clouds
8:54 PM 17.6 °F - 8.6 °F 68% 30.00 in 10.0 mi Calm Calm - N/A   Scattered Clouds
9:14 PM 15.8 °F - 8.6 °F 73% 29.99 in 10.0 mi Calm Calm - N/A   Clear
9:34 PM 15.8 °F - 8.6 °F 73% 29.99 in 10.0 mi Calm Calm - N/A   Clear
9:53 PM 15.8 °F - 8.6 °F 73% 29.99 in 10.0 mi Calm Calm - N/A   Clear
10:13 PM 17.6 °F - 8.6 °F 68% 29.98 in 10.0 mi Calm Calm - N/A   Mostly Cloudy
10:34 PM 17.6 °F - 10.4 °F 73% 29.98 in 10.0 mi Calm Calm - N/A   Overcast
10:54 PM 15.8 °F 10.2 °F 8.6 °F 73% 29.98 in 10.0 mi SSW 3.5 mph - N/A   Mostly Cloudy
11:14 PM 15.8 °F - 8.6 °F 73% 29.98 in 10.0 mi Calm Calm - N/A   Scattered Clouds
11:34 PM 15.8 °F - 10.4 °F 79% 29.97 in 10.0 mi Calm Calm - N/A   Mostly Cloudy
11:54 PM 17.6 °F - 10.4 °F 73% 29.97 in 10.0 mi Calm Calm - N/A   Overcast